QPF
0.00 0.00 0.00 0.00 0.00 0.00 0.00 0.00 0.00 0.00 0.00 0.00 0.00 0.00 0.00 0.00 0.00 0.00 0.00 0.00 0.00 0.00 0.00 0.00 0.00 0.01 0.00 0.00 0.00 0.00 0.00 0.00 0.00 0.00 0.00 0.00 0.00 0.00 0.00 0.00 0.00 0.00 0.00 0.00 0.00 0.01 0.01 0.00 0.00
0.00 0.00 0.00 0.00 0.00 0.00 0.00 0.00 0.00 0.00 0.00 0.00 0.00 0.00 0.00 0.00 0.00 0.00 0.00 0.00 0.00 0.00 0.01 0.04 0.01 0.01 0.01 0.01 0.00 0.00 0.00 0.00 0.00 0.00 0.00 0.00 0.00 0.00 0.00 0.00 0.00 0.00 0.00 0.00 0.00 0.00 0.01 0.00 0.00
0.00 0.00 0.00 0.00 0.00 0.00 0.00 0.00 0.00 0.00 0.00 0.00 0.00 0.00 0.00 0.00 0.00 0.00 0.00 0.00 0.00 0.01 0.03 0.11 0.08 0.01 0.01 0.01 0.00 0.00 0.00 0.00 0.00 0.00 0.00 0.00 0.00 0.00 0.00 0.00 0.00 0.00 0.00 0.00 0.00 0.00 0.00 0.00 0.00
0.00 0.00 0.00 0.00 0.00 0.00 0.00 0.00 0.00 0.00 0.00 0.00 0.00 0.00 0.00 0.00 0.00 0.00 0.00 0.00 0.00 0.00 0.04 0.12 0.18 0.06 0.02 0.01 0.00 0.00 0.00 0.00 0.00 0.00 0.00 0.00 0.00 0.00 0.00 0.01 0.00 0.00 0.00 0.00 0.00 0.00 0.00 0.00 0.00
0.00 0.00 0.00 0.00 0.00 0.00 0.00 0.00 0.00 0.00 0.00 0.00 0.00 0.00 0.00 0.00 0.00 0.00 0.00 0.00 0.00 0.01 0.04 0.15 0.25 0.15 0.05 0.01 0.01 0.01 0.00 0.00 0.00 0.00 0.00 0.00 0.00 0.00 0.01 0.00 0.00 0.00 0.00 0.00 0.00 0.00 0.00 0.00 0.00
0.00 0.00 0.00 0.00 0.00 0.00 0.00 0.00 0.00 0.00 0.00 0.00 0.00 0.00 0.00 0.00 0.00 0.00 0.00 0.00 0.00 0.00 0.03 0.16 0.34 0.39 0.18 0.03 0.00 0.01 0.01 0.00 0.00 0.00 0.00 0.00 0.01 0.01 0.01 0.00 0.00 0.00 0.00 0.00 0.00 0.00 0.00 0.00 0.00
0.00 0.00 0.00 0.00 0.00 0.00 0.00 0.00 0.00 0.00 0.00 0.00 0.00 0.00 0.00 0.00 0.00 0.00 0.00 0.00 0.00 0.00 0.04 0.15 0.33 0.46 0.40 0.19 0.03 0.00 0.01 0.01 0.00 0.00 0.00 0.00 0.00 0.01 0.01 0.00 0.00 0.00 0.00 0.00 0.00 0.00 0.00 0.00 0.00
0.00 0.00 0.00 0.00 0.00 0.00 0.00 0.00 0.00 0.00 0.00 0.00 0.00 0.00 0.00 0.00 0.00 0.00 0.00 0.00 0.00 0.00 0.02 0.09 0.20 0.31 0.45 0.39 0.19 0.05 0.01 0.00 0.00 0.00 0.01 0.00 0.00 0.00 0.00 0.00 0.00 0.00 0.00 0.00 0.00 0.00 0.00 0.00 0.00
0.00 0.00 0.00 0.00 0.00 0.00 0.00 0.00 0.00 0.00 0.00 0.00 0.00 0.00 0.00 0.00 0.00 0.00 0.00 0.00 0.00 0.00 0.02 0.05 0.10 0.22 0.33 0.46 0.38 0.23 0.12 0.06 0.01 0.00 0.00 0.00 0.00 0.00 0.00 0.00 0.00 0.00 0.00 0.00 0.00 0.00 0.00 0.00 0.00
0.00 0.00 0.00 0.00 0.00 0.00 0.00 0.00 0.00 0.00 0.00 0.00 0.00 0.00 0.00 0.00 0.00 0.00 0.00 0.00 0.00 0.00 0.01 0.02 0.06 0.11 0.17 0.29 0.32 0.35 0.32 0.24 0.11 0.02 0.02 0.01 0.00 0.00 0.00 0.00 0.00 0.00 0.00 0.00 0.00 0.00 0.00 0.00 0.00
0.00 0.00 0.00 0.00 0.00 0.00 0.00 0.00 0.00 0.00 0.00 0.00 0.00 0.00 0.00 0.00 0.00 0.00 0.00 0.00 0.00 0.00 0.00 0.01 0.02 0.06 0.07 0.16 0.36 0.37 0.44 0.30 0.28 0.10 0.05 0.02 0.03 0.01 0.00 0.00 0.00 0.00 0.00 0.00 0.00 0.00 0.00 0.00 0.00
0.00 0.00 0.00 0.00 0.00 0.00 0.00 0.00 0.00 0.00 0.00 0.00 0.00 0.00 0.00 0.00 0.00 0.00 0.00 0.00 0.00 0.00 0.00 0.00 0.01 0.12 0.12 0.08 0.22 0.36 0.44 0.38 0.21 0.23 0.04 0.01 0.02 0.01 0.01 0.00 0.00 0.00 0.00 0.00 0.00 0.00 0.00 0.00 0.00
0.00 0.00 0.00 0.00 0.00 0.00 0.00 0.00 0.00 0.00 0.00 0.00 0.00 0.00 0.00 0.00 0.00 0.00 0.00 0.00 0.00 0.00 0.00 0.00 0.00 0.07 0.22 0.14 0.14 0.42 0.39 0.49 0.39 0.30 0.07 0.00 0.00 0.00 0.00 0.00 0.00 0.00 0.00 0.00 0.00 0.00 0.00 0.00 0.00
0.00 0.00 0.00 0.00 0.00 0.00 0.00 0.00 0.00 0.00 0.00 0.00 0.00 0.00 0.00 0.00 0.00 0.00 0.00 0.00 0.00 0.00 0.00 0.00 0.00 0.00 0.12 0.30 0.12 0.25 0.46 0.39 0.56 0.40 0.11 0.00 0.00 0.00 0.00 0.00 0.00 0.00 0.00 0.00 0.00 0.00 0.00 0.00 0.00
0.00 0.00 0.00 0.00 0.00 0.00 0.00 0.00 0.00 0.00 0.00 0.00 0.00 0.00 0.00 0.00 0.00 0.00 0.00 0.00 0.00 0.00 0.00 0.00 0.00 0.00 0.01 0.13 0.16 0.08 0.32 0.53 0.45 0.57 0.27 0.05 0.00 0.00 0.00 0.00 0.00 0.00 0.00 0.00 0.00 0.00 0.00 0.00 0.00
0.00 0.00 0.00 0.00 0.00 0.00 0.00 0.00 0.00 0.00 0.00 0.00 0.00 0.00 0.00 0.00 0.00 0.00 0.00 0.00 0.00 0.00 0.00 0.00 0.00 0.00 0.00 0.03 0.10 0.05 0.08 0.56 0.71 0.53 0.47 0.11 0.02 0.00 0.00 0.00 0.00 0.00 0.00 0.00 0.00 0.00 0.00 0.00 0.00
0.00 0.00 0.00 0.00 0.00 0.00 0.00 0.00 0.00 0.00 0.00 0.00 0.00 0.00 0.00 0.00 0.00 0.00 0.00 0.00 0.00 0.00 0.00 0.00 0.01 0.00 0.00 0.00 0.04 0.08 0.03 0.11 0.78 1.05 0.54 0.16 0.06 0.02 0.00 0.00 0.00 0.00 0.00 0.00 0.00 0.00 0.00 0.00 0.00
0.00 0.00 0.00 0.00 0.00 0.00 0.00 0.00 0.00 0.00 0.00 0.00 0.00 0.00 0.00 0.00 0.00 0.00 0.00 0.00 0.00 0.00 0.00 0.00 0.02 0.01 0.00 0.01 0.01 0.07 0.06 0.01 0.18 1.24 1.22 0.36 0.07 0.05 0.04 0.01 0.00 0.00 0.00 0.00 0.00 0.00 0.00 0.00 0.00
0.00 0.00 0.00 0.00 0.00 0.00 0.00 0.00 0.00 0.00 0.00 0.00 0.00 0.00 0.00 0.00 0.00 0.00 0.00 0.00 0.00 0.00 0.00 0.00 0.01 0.02 0.01 0.02 0.01 0.01 0.07 0.01 0.01 0.30 1.79 1.41 0.22 0.06 0.05 0.04 0.02 0.00 0.00 0.00 0.00 0.00 0.00 0.00 0.00
0.00 0.00 0.00 0.00 0.00 0.00 0.00 0.00 0.00 0.00 0.00 0.00 0.00 0.00 0.00 0.00 0.00 0.00 0.00 0.00 0.00 0.00 0.00 0.00 0.00 0.02 0.02 0.01 0.03 0.01 0.02 0.03 0.01 0.05 0.52 2.14 1.48 0.20 0.05 0.03 0.03 0.01 0.00 0.00 0.00 0.00 0.00 0.00 0.00
0.00 0.00 0.00 0.00 0.00 0.00 0.00 0.00 0.00 0.00 0.00 0.00 0.00 0.00 0.00 0.00 0.00 0.00 0.00 0.00 0.00 0.00 0.00 0.00 0.00 0.00 0.02 0.02 0.02 0.01 0.00 0.01 0.01 0.03 0.18 0.64 2.08 1.57 0.29 0.04 0.02 0.02 0.00 0.00 0.00 0.00 0.00 0.00 0.00
0.00 0.00 0.00 0.00 0.00 0.00 0.00 0.00 0.00 0.00 0.00 0.00 0.00 0.00 0.00 0.00 0.00 0.00 0.00 0.00 0.00 0.00 0.00 0.00 0.00 0.00 0.01 0.01 0.03 0.02 0.01 0.00 0.01 0.02 0.08 0.31 0.54 1.51 1.67 0.53 0.08 0.01 0.01 0.01 0.00 0.00 0.00 0.00 0.00
0.00 0.00 0.00 0.00 0.00 0.00 0.00 0.00 0.00 0.00 0.00 0.00 0.00 0.00 0.00 0.00 0.00 0.00 0.00 0.00 0.00 0.00 0.00 0.00 0.00 0.00 0.00 0.01 0.01 0.02 0.01 0.01 0.00 0.03 0.10 0.21 0.39 0.39 0.82 1.26 0.70 0.18 0.12 0.08 0.09 0.03 0.00 0.00 0.00
0.00 0.00 0.00 0.00 0.00 0.00 0.00 0.00 0.00 0.00 0.00 0.00 0.00 0.00 0.00 0.00 0.00 0.00 0.00 0.00 0.00 0.00 0.00 0.00 0.00 0.00 0.00 0.00 0.00 0.01 0.01 0.01 0.01 0.02 0.16 0.16 0.23 0.27 0.28 0.47 0.79 0.76 0.39 0.30 0.28 0.22 0.15 0.03 0.00
0.00 0.00 0.00 0.00 0.00 0.00 0.00 0.00 0.00 0.00 0.00 0.00 0.00 0.00 0.00 0.00 0.00 0.00 0.00 0.00 0.00 0.00 0.00 0.00 0.00 0.00 0.00 0.00 0.00 0.00 0.01 0.01 0.01 0.01 0.13 0.23 0.22 0.15 0.14 0.12 0.21 0.36 0.44 0.40 0.49 0.59 0.35 0.24 0.08
0.00 0.00 0.00 0.00 0.00 0.00 0.00 0.00 0.00 0.00 0.00 0.00 0.00 0.00 0.00 0.00 0.00 0.00 0.00 0.00 0.00 0.00 0.00 0.00 0.00 0.00 0.00 0.00 0.00 0.00 0.00 0.01 0.01 0.02 0.06 0.28 0.33 0.10 0.02 0.02 0.02 0.05 0.11 0.18 0.26 0.45 0.45 0.30 0.19
0.00 0.00 0.00 0.00 0.00 0.00 0.00 0.00 0.00 0.00 0.00 0.00 0.00 0.00 0.00 0.00 0.00 0.00 0.00 0.00 0.00 0.00 0.00 0.00 0.00 0.00 0.00 0.00 0.00 0.00 0.00 0.00 0.01 0.01 0.03 0.13 0.26 0.22 0.12 0.02 0.01 0.03 0.07 0.07 0.07 0.10 0.19 0.24 0.16
0.00 0.00 0.00 0.00 0.00 0.00 0.00 0.00 0.00 0.00 0.00 0.00 0.00 0.00 0.00 0.00 0.00 0.00 0.00 0.00 0.00 0.00 0.00 0.00 0.00 0.00 0.00 0.00 0.00 0.00 0.00 0.00 0.00 0.01 0.02 0.08 0.16 0.21 0.20 0.18 0.05 0.01 0.01 0.03 0.03 0.02 0.03 0.07 0.06
0.00 0.00 0.00 0.00 0.00 0.00 0.00 0.00 0.00 0.00 0.00 0.00 0.00 0.00 0.00 0.00 0.00 0.00 0.00 0.00 0.00 0.00 0.00 0.00 0.00 0.00 0.00 0.01 0.02 0.01 0.00 0.00 0.00 0.01 0.02 0.06 0.12 0.14 0.09 0.10 0.09 0.01 0.00 0.00 0.02 0.03 0.02 0.02 0.01
0.00 0.00 0.00 0.00 0.00 0.00 0.00 0.00 0.00 0.00 0.00 0.00 0.00 0.00 0.00 0.00 0.00 0.00 0.00 0.00 0.00 0.00 0.00 0.00 0.00 0.00 0.01 0.02 0.04 0.02 0.00 0.00 0.00 0.01 0.01 0.04 0.12 0.14 0.12 0.09 0.05 0.02 0.00 0.00 0.00 0.01 0.01 0.01 0.00
MSLP
1017.17 1016.94 1016.74 1017.10 1018.87 1019.23 1018.89 1018.16 1017.42 1016.99 1016.58 1016.25 1015.99 1015.78 1015.26 1015.11 1015.37 1016.30 1015.92 1015.72 1014.39 1014.08 1012.49 1012.07 1011.77 1011.44 1011.81 1012.09 1012.21 1012.49 1012.95 1013.29 1013.65 1013.87 1014.36 1014.79 1015.13 1015.59 1015.85 1016.06 1016.28 1016.57 1016.82 1017.18 1017.55 1018.01 1018.24 1018.62 1018.72
1017.13 1016.89 1017.36 1018.59 1020.05 1020.24 1019.34 1018.49 1017.90 1017.35 1016.94 1016.71 1016.30 1015.91 1015.97 1015.62 1015.71 1016.54 1015.97 1016.17 1015.55 1014.66 1013.41 1012.38 1011.90 1011.71 1011.82 1012.07 1012.42 1012.66 1012.89 1013.21 1013.68 1014.03 1014.33 1014.74 1015.22 1015.65 1016.00 1016.23 1016.46 1016.67 1017.09 1017.55 1017.95 1018.26 1018.77 1019.08 1019.16
1017.11 1017.33 1018.71 1020.12 1021.04 1020.89 1020.10 1019.28 1018.78 1018.23 1017.88 1017.72 1017.49 1016.90 1016.97 1017.22 1017.34 1017.77 1017.67 1016.89 1015.96 1014.97 1014.17 1013.63 1012.54 1011.83 1011.97 1012.23 1012.47 1012.72 1012.96 1013.24 1013.62 1014.01 1014.33 1014.72 1015.20 1015.67 1016.09 1016.44 1016.71 1016.95 1017.24 1017.91 1018.32 1018.54 1019.19 1019.45 1019.64
1017.80 1018.66 1020.26 1021.40 1022.15 1021.57 1020.93 1020.26 1019.99 1019.17 1018.98 1019.15 1019.18 1018.55 1018.10 1018.30 1017.99 1018.26 1017.46 1017.26 1016.43 1015.33 1014.89 1013.97 1012.96 1012.22 1011.98 1012.35 1012.55 1012.79 1013.06 1013.29 1013.57 1014.06 1014.34 1014.71 1015.17 1015.64 1016.14 1016.59 1017.01 1017.24 1017.56 1018.11 1018.62 1018.95 1019.50 1019.72 1019.97
1019.09 1020.51 1022.08 1023.05 1023.01 1022.54 1021.64 1021.20 1020.85 1020.78 1020.58 1020.40 1020.12 1019.40 1018.88 1018.14 1018.13 1017.96 1017.44 1017.05 1016.65 1015.83 1015.64 1015.10 1014.04 1012.48 1012.15 1012.12 1012.53 1012.82 1013.03 1013.38 1013.66 1013.98 1014.38 1014.72 1015.14 1015.66 1016.18 1016.73 1017.27 1017.58 1017.91 1018.35 1018.85 1019.31 1019.60 1019.96 1020.17
1021.11 1022.11 1023.93 1024.64 1024.07 1023.55 1022.84 1022.40 1021.59 1021.84 1021.80 1021.15 1020.83 1020.30 1019.07 1017.85 1017.79 1017.90 1017.64 1017.49 1017.20 1016.60 1016.17 1015.69 1015.32 1014.52 1012.55 1012.01 1012.27 1012.65 1013.02 1013.31 1013.72 1013.96 1014.28 1014.64 1015.09 1015.65 1016.31 1016.76 1017.39 1017.79 1018.18 1018.65 1019.06 1019.37 1019.79 1020.13 1020.51
1022.16 1023.64 1025.09 1025.30 1025.24 1024.51 1023.85 1022.85 1022.84 1022.56 1022.27 1021.52 1021.25 1020.63 1019.04 1018.19 1018.11 1017.99 1017.87 1017.49 1017.44 1017.15 1016.84 1016.24 1015.98 1014.98 1013.98 1012.66 1012.27 1012.44 1012.80 1013.18 1013.59 1014.01 1014.17 1014.53 1014.96 1015.58 1016.22 1016.71 1017.40 1017.88 1018.34 1018.75 1019.22 1019.56 1019.90 1020.36 1020.83
1022.70 1024.36 1025.65 1025.76 1025.83 1025.16 1024.40 1023.95 1023.59 1023.21 1022.47 1021.90 1021.27 1020.45 1019.42 1018.42 1018.12 1018.05 1017.85 1017.64 1017.55 1017.26 1017.11 1016.63 1016.27 1015.96 1015.38 1015.21 1013.14 1012.35 1012.49 1012.96 1013.47 1013.93 1014.39 1014.56 1014.99 1015.51 1016.06 1016.64 1017.37 1017.85 1018.30 1018.92 1019.41 1019.76 1020.16 1020.59 1021.13
1022.98 1024.85 1025.92 1025.64 1025.75 1025.18 1024.64 1024.55 1023.77 1023.06 1022.76 1022.48 1021.55 1020.70 1019.95 1019.07 1018.81 1018.27 1017.81 1017.74 1017.50 1017.04 1017.18 1016.79 1016.29 1016.42 1015.67 1014.40 1014.00 1013.41 1012.67 1012.83 1013.50 1013.90 1014.44 1014.87 1015.17 1015.63 1016.10 1016.54 1017.18 1017.78 1018.35 1018.96 1019.46 1019.96 1020.43 1020.99 1021.50
1023.75 1025.11 1025.23 1025.03 1025.13 1025.21 1024.94 1024.71 1024.06 1023.57 1023.01 1022.17 1021.77 1020.81 1020.13 1019.50 1019.40 1018.77 1017.85 1017.60 1017.52 1017.07 1016.69 1016.95 1016.76 1016.53 1015.76 1015.58 1015.57 1014.26 1012.54 1012.68 1013.10 1013.73 1014.34 1014.72 1015.07 1015.52 1016.06 1016.65 1017.13 1017.73 1018.38 1019.04 1019.60 1020.07 1020.69 1021.35 1021.95
1024.13 1024.92 1025.03 1024.70 1024.74 1024.90 1024.64 1024.57 1023.93 1023.65 1022.85 1021.94 1021.46 1020.41 1020.15 1019.86 1019.64 1019.24 1018.22 1017.46 1017.62 1017.18 1017.03 1017.10 1016.05 1016.38 1016.37 1016.29 1015.10 1014.66 1015.28 1012.33 1012.61 1013.33 1013.87 1014.45 1014.91 1015.50 1016.16 1016.72 1017.20 1017.73 1018.62 1019.30 1019.69 1020.45 1021.10 1021.72 1022.24
1024.52 1024.78 1025.04 1024.72 1024.55 1024.87 1024.52 1024.19 1023.54 1023.62 1022.08 1021.79 1021.55 1020.94 1020.44 1019.99 1019.80 1019.25 1018.47 1018.29 1017.01 1017.82 1016.56 1017.71 1016.44 1016.95 1017.35 1016.95 1016.21 1016.06 1016.15 1013.33 1012.36 1012.72 1013.38 1013.98 1014.67 1015.18 1015.80 1016.32 1016.84 1017.49 1018.50 1019.45 1020.32 1020.89 1021.44 1021.90 1022.32
1024.90 1025.01 1024.88 1024.53 1024.42 1024.44 1024.20 1023.88 1023.52 1022.57 1022.02 1021.43 1020.98 1020.69 1020.52 1020.02 1019.62 1019.40 1018.54 1017.48 1016.92 1016.53 1016.80 1016.13 1016.47 1017.31 1015.82 1015.52 1015.80 1016.26 1014.88 1014.81 1014.02 1012.24 1012.72 1013.27 1013.92 1014.69 1015.29 1016.04 1016.66 1017.39 1018.55 1019.39 1020.65 1021.32 1021.82 1022.26 1022.62
1024.99 1025.07 1024.94 1024.38 1024.09 1024.15 1024.06 1023.26 1023.29 1022.14 1021.61 1021.29 1020.80 1020.53 1020.30 1020.30 1019.87 1019.62 1018.95 1018.01 1017.88 1017.79 1017.62 1017.83 1017.28 1015.83 1015.68 1015.91 1016.87 1016.03 1014.97 1016.51 1013.13 1012.34 1011.90 1012.56 1013.24 1013.88 1014.83 1015.56 1016.46 1017.59 1018.40 1019.40 1020.44 1021.22 1021.98 1022.64 1023.00
1025.13 1025.50 1025.07 1024.45 1024.02 1023.93 1023.70 1023.33 1022.83 1022.06 1021.78 1021.42 1020.91 1020.64 1020.55 1020.63 1020.72 1020.96 1020.68 1020.01 1019.16 1018.41 1017.90 1017.71 1016.24 1015.92 1016.27 1015.92 1016.08 1016.38 1015.65 1013.82 1013.87 1014.55 1011.53 1011.88 1012.54 1013.30 1014.24 1015.11 1016.42 1017.21 1018.37 1019.37 1020.50 1021.45 1022.13 1022.84 1023.41
1025.94 1026.03 1025.72 1024.50 1023.92 1023.62 1023.87 1022.73 1022.20 1022.09 1021.99 1021.69 1021.39 1020.96 1021.42 1022.03 1022.12 1021.99 1021.47 1021.02 1020.16 1019.66 1018.77 1017.87 1017.11 1016.50 1016.18 1015.11 1014.56 1014.39 1015.08 1014.48 1014.45 1012.68 1013.23 1010.82 1011.73 1012.66 1013.70 1014.57 1015.88 1016.98 1017.99 1019.06 1020.05 1021.22 1022.21 1022.97 1023.75
1027.30 1027.10 1026.23 1025.14 1024.11 1023.91 1023.94 1022.35 1022.10 1022.40 1022.30 1021.93 1021.98 1022.50 1022.84 1022.91 1022.82 1022.54 1022.12 1021.53 1021.13 1020.26 1019.24 1018.06 1017.55 1017.35 1016.94 1015.45 1014.90 1015.19 1014.41 1013.80 1013.36 1013.35 1010.80 1010.14 1010.62 1011.87 1012.82 1014.08 1015.36 1016.71 1017.75 1018.74 1019.43 1020.77 1021.79 1022.88 1023.92
1027.90 1027.78 1026.79 1025.85 1024.46 1024.08 1023.74 1022.71 1022.32 1023.19 1023.19 1023.23 1023.55 1023.66 1023.74 1023.74 1023.71 1023.27 1022.61 1021.92 1021.54 1020.73 1020.29 1020.00 1019.35 1017.23 1017.00 1015.51 1013.82 1013.78 1014.21 1013.69 1013.73 1012.79 1013.09 1010.02 1009.69 1010.74 1012.12 1013.38 1014.79 1016.13 1017.63 1018.88 1019.47 1020.10 1021.54 1022.72 1023.70
1027.48 1027.72 1027.34 1025.69 1024.49 1024.31 1023.54 1022.95 1022.62 1023.53 1023.98 1024.27 1024.36 1024.42 1024.50 1024.30 1024.19 1023.81 1023.24 1022.43 1021.58 1020.91 1020.90 1020.20 1018.82 1018.08 1017.13 1015.69 1015.20 1014.76 1012.62 1013.38 1012.89 1013.03 1012.27 1012.42 1008.74 1009.62 1011.28 1012.76 1013.98 1014.92 1016.58 1018.16 1019.12 1020.21 1021.10 1023.00 1023.59
1027.30 1027.46 1026.90 1025.73 1024.85 1024.86 1023.36 1022.57 1022.81 1023.77 1024.58 1024.94 1024.94 1024.81 1024.82 1024.67 1024.22 1023.90 1023.58 1023.04 1022.37 1021.60 1020.27 1019.31 1019.24 1018.30 1017.88 1017.03 1016.22 1015.62 1014.07 1012.59 1011.95 1012.69 1011.87 1009.73 1008.19 1008.34 1009.88 1011.58 1013.00 1014.10 1015.71 1017.54 1018.80 1019.58 1021.03 1022.78 1023.06
1027.05 1027.27 1026.96 1026.60 1025.54 1024.96 1024.58 1023.34 1024.06 1024.49 1024.88 1025.07 1025.28 1025.37 1025.18 1025.19 1024.86 1024.21 1023.76 1023.57 1023.08 1022.40 1021.78 1020.69 1019.45 1019.01 1017.98 1017.71 1016.17 1014.54 1013.58 1012.26 1012.61 1011.60 1010.73 1009.96 1008.36 1008.29 1008.36 1010.15 1011.55 1013.19 1014.57 1016.10 1017.21 1018.36 1019.20 1020.95 1022.60
1027.33 1026.93 1027.25 1027.07 1027.24 1027.31 1026.74 1026.65 1025.20 1025.11 1025.22 1025.51 1025.73 1025.68 1025.52 1025.32 1025.12 1024.75 1024.23 1023.85 1023.38 1022.82 1022.45 1021.74 1020.63 1019.55 1018.60 1017.50 1016.45 1015.79 1014.16 1013.42 1012.49 1011.54 1010.62 1010.10 1008.74 1008.47 1009.02 1009.22 1010.74 1011.96 1013.67 1015.15 1016.45 1017.46 1018.27 1019.54 1021.03
1027.08 1027.42 1027.92 1028.26 1028.63 1028.94 1028.17 1028.96 1025.62 1026.20 1026.00 1026.06 1025.98 1026.01 1025.96 1025.78 1025.44 1025.01 1024.69 1024.27 1023.61 1022.95 1022.34 1021.90 1020.95 1019.77 1018.42 1017.70 1017.04 1015.90 1015.00 1014.41 1013.52 1011.38 1011.14 1009.87 1008.90 1008.61 1008.80 1010.38 1010.76 1011.34 1012.63 1014.14 1015.40 1017.08 1017.97 1018.84 1019.73
1027.53 1028.32 1029.19 1029.94 1030.31 1030.52 1029.19 1029.90 1026.82 1027.24 1026.64 1026.53 1026.28 1026.38 1026.34 1025.99 1025.63 1025.20 1024.86 1024.34 1023.88 1023.20 1022.32 1021.62 1020.77 1019.87 1018.81 1017.93 1017.60 1016.81 1015.83 1014.67 1012.84 1012.27 1010.49 1009.47 1008.90 1008.59 1008.95 1010.06 1010.62 1011.39 1012.39 1013.36 1014.78 1016.10 1017.22 1017.92 1018.99
1028.45 1030.23 1031.26 1032.09 1032.19 1030.90 1029.85 1030.16 1026.58 1026.36 1026.62 1026.83 1026.66 1026.36 1026.44 1026.42 1026.15 1025.58 1024.99 1024.50 1023.99 1023.41 1022.59 1021.62 1020.87 1019.66 1019.02 1018.40 1017.45 1016.54 1015.47 1014.59 1013.02 1012.33 1010.40 1009.46 1008.97 1008.09 1008.77 1009.64 1010.16 1011.15 1012.23 1013.62 1014.57 1016.05 1016.15 1017.64 1018.44
1030.23 1031.54 1032.97 1033.39 1033.08 1031.63 1030.41 1029.34 1026.24 1025.90 1026.14 1026.55 1026.61 1026.60 1026.60 1026.52 1026.39 1026.07 1025.34 1024.69 1024.13 1023.55 1022.89 1022.00 1021.08 1019.92 1019.10 1018.29 1017.03 1016.39 1015.71 1014.93 1013.60 1012.33 1010.87 1009.97 1008.95 1007.43 1008.05 1008.79 1009.83 1011.03 1011.79 1012.57 1013.46 1015.43 1016.13 1016.89 1018.17
1031.02 1032.06 1032.52 1033.35 1033.63 1033.31 1030.45 1028.11 1025.83 1025.91 1026.28 1026.51 1026.74 1026.93 1026.85 1026.68 1026.45 1026.02 1025.35 1024.64 1023.96 1023.37 1022.75 1022.14 1021.06 1020.13 1019.27 1018.52 1017.45 1016.49 1015.14 1014.07 1013.63 1012.39 1011.75 1009.79 1008.44 1007.56 1007.67 1008.19 1009.08 1010.07 1010.61 1011.65 1013.43 1014.15 1015.84 1016.65 1017.10
1029.96 1031.41 1033.25 1034.45 1034.26 1033.36 1030.09 1028.60 1026.24 1026.02 1025.86 1026.00 1026.59 1026.79 1026.88 1026.74 1026.36 1025.95 1025.34 1024.57 1023.68 1023.05 1022.52 1021.89 1021.05 1020.07 1018.99 1018.37 1017.55 1016.42 1015.70 1014.72 1013.30 1012.09 1010.39 1008.84 1008.40 1007.25 1007.37 1007.57 1008.42 1009.58 1010.39 1011.38 1012.39 1012.72 1014.29 1015.51 1016.25
1030.65 1031.69 1033.20 1033.91 1033.92 1033.63 1031.18 1026.20 1023.46 1024.07 1024.72 1025.32 1026.00 1026.51 1026.72 1026.84 1026.39 1025.91 1025.28 1024.59 1023.71 1022.81 1022.19 1021.59 1020.71 1019.84 1018.77 1017.55 1016.88 1016.11 1015.16 1013.73 1012.22 1011.32 1010.78 1009.01 1008.12 1006.61 1006.82 1006.94 1007.53 1008.99 1010.13 1011.18 1012.08 1012.72 1012.49 1014.42 1015.52
1029.14 1030.00 1031.13 1032.62 1032.97 1032.36 1031.14 1024.60 1022.69 1023.35 1024.10 1024.77 1025.66 1026.10 1026.26 1026.47 1026.26 1025.87 1024.95 1024.32 1023.68 1022.78 1021.85 1021.29 1020.38 1019.64 1018.85 1018.14 1017.03 1015.93 1014.90 1013.95 1012.32 1011.44 1010.88 1008.80 1007.72 1006.28 1006.19 1006.09 1007.09 1008.12 1009.19 1010.31 1011.45 1012.23 1012.61 1013.22 1014.31
Thickness
5652 5652 5653 5646 5621 5624 5614 5622 5633 5635 5643 5651 5658 5658 5660 5671 5671 5660 5677 5682 5697 5700 5714 5719 5723 5734 5736 5739 5742 5743 5743 5743 5742 5742 5741 5740 5739 5738 5739 5739 5738 5739 5739 5738 5736 5733 5731 5726 5725
5648 5647 5642 5629 5607 5594 5599 5617 5619 5623 5630 5633 5645 5649 5648 5656 5664 5660 5667 5673 5681 5689 5702 5713 5717 5724 5729 5733 5735 5737 5738 5739 5738 5736 5738 5738 5737 5737 5736 5737 5736 5737 5737 5735 5733 5733 5728 5724 5725
5642 5639 5624 5605 5591 5585 5595 5604 5604 5608 5601 5608 5617 5632 5630 5636 5640 5641 5650 5660 5671 5681 5690 5699 5708 5717 5721 5725 5728 5730 5732 5733 5734 5733 5733 5736 5735 5735 5735 5734 5734 5733 5734 5731 5730 5730 5725 5723 5722
5630 5620 5605 5599 5581 5584 5586 5587 5584 5587 5582 5578 5587 5599 5609 5610 5621 5626 5642 5650 5660 5672 5678 5689 5699 5709 5715 5717 5720 5723 5726 5728 5729 5728 5729 5732 5732 5732 5732 5731 5731 5731 5730 5728 5727 5727 5724 5722 5720
5616 5599 5578 5574 5569 5572 5570 5566 5567 5561 5548 5550 5557 5575 5581 5597 5606 5614 5627 5641 5649 5661 5664 5675 5685 5699 5706 5712 5714 5717 5719 5722 5723 5724 5725 5726 5728 5728 5728 5728 5728 5728 5726 5725 5724 5723 5723 5721 5719
5588 5581 5554 5544 5550 5544 5546 5537 5546 5532 5524 5528 5529 5540 5564 5582 5592 5598 5607 5623 5632 5644 5651 5660 5667 5677 5694 5704 5708 5711 5713 5715 5717 5718 5721 5722 5723 5724 5723 5724 5723 5724 5724 5721 5721 5721 5721 5719 5717
5571 5557 5541 5532 5524 5525 5532 5525 5511 5508 5498 5508 5509 5515 5548 5560 5569 5579 5589 5605 5616 5627 5635 5646 5652 5666 5680 5688 5699 5704 5707 5709 5711 5713 5715 5718 5719 5720 5720 5721 5720 5720 5720 5720 5718 5718 5719 5717 5715
5562 5542 5528 5517 5510 5510 5515 5510 5501 5485 5481 5487 5493 5494 5516 5538 5546 5558 5572 5586 5600 5612 5621 5631 5640 5648 5658 5666 5682 5695 5701 5704 5705 5707 5707 5711 5713 5715 5717 5718 5717 5717 5717 5715 5714 5714 5715 5713 5712
5560 5520 5500 5519 5506 5503 5498 5486 5486 5476 5461 5458 5472 5483 5498 5516 5519 5539 5554 5568 5584 5599 5605 5617 5629 5633 5650 5658 5672 5680 5688 5696 5695 5698 5699 5702 5704 5708 5711 5714 5714 5715 5713 5711 5710 5710 5710 5709 5707
5538 5506 5514 5512 5505 5489 5481 5472 5464 5455 5444 5446 5447 5460 5477 5492 5498 5514 5536 5549 5564 5585 5594 5600 5612 5622 5632 5637 5653 5671 5686 5690 5692 5691 5693 5696 5699 5702 5705 5706 5709 5710 5710 5709 5706 5706 5705 5704 5703
5530 5507 5506 5502 5495 5482 5471 5455 5451 5438 5432 5435 5436 5455 5462 5474 5480 5493 5516 5535 5545 5566 5577 5585 5604 5612 5619 5628 5647 5656 5658 5685 5690 5688 5690 5692 5694 5696 5696 5698 5702 5707 5706 5704 5702 5700 5700 5699 5699
5519 5509 5499 5491 5484 5467 5458 5450 5443 5424 5428 5426 5425 5436 5450 5460 5465 5475 5497 5514 5537 5544 5565 5564 5585 5594 5601 5613 5624 5634 5642 5670 5682 5688 5687 5689 5691 5692 5694 5697 5700 5703 5703 5698 5695 5694 5694 5695 5695
5504 5496 5489 5482 5471 5459 5452 5441 5432 5426 5422 5421 5424 5430 5434 5446 5454 5459 5478 5500 5520 5537 5547 5562 5571 5575 5596 5611 5617 5626 5644 5652 5661 5682 5685 5688 5690 5692 5693 5694 5696 5697 5696 5693 5688 5686 5686 5688 5689
5498 5491 5478 5471 5465 5452 5443 5439 5423 5423 5421 5416 5420 5422 5427 5434 5439 5441 5458 5484 5499 5512 5525 5536 5551 5572 5586 5594 5598 5611 5618 5623 5665 5672 5683 5685 5688 5690 5689 5690 5690 5688 5688 5687 5683 5680 5678 5679 5681
5492 5477 5467 5463 5460 5448 5440 5429 5417 5420 5413 5410 5415 5417 5419 5418 5423 5424 5436 5454 5475 5494 5504 5521 5543 5555 5567 5581 5588 5596 5611 5635 5648 5648 5675 5680 5683 5685 5685 5687 5683 5683 5680 5680 5675 5672 5671 5671 5672
5473 5463 5443 5461 5454 5446 5433 5424 5420 5415 5407 5405 5407 5414 5409 5397 5398 5404 5416 5431 5455 5470 5489 5507 5523 5544 5555 5575 5589 5599 5601 5613 5627 5657 5657 5680 5680 5680 5679 5681 5679 5677 5674 5675 5673 5666 5664 5663 5663
5442 5429 5435 5445 5447 5436 5421 5426 5427 5412 5405 5403 5395 5373 5375 5374 5378 5387 5400 5414 5430 5449 5468 5491 5507 5520 5533 5559 5574 5577 5594 5611 5625 5637 5653 5675 5679 5676 5676 5675 5672 5669 5667 5669 5672 5665 5660 5657 5655
5445 5407 5431 5427 5436 5429 5417 5418 5421 5385 5383 5375 5359 5357 5357 5354 5359 5371 5382 5399 5412 5428 5443 5455 5473 5505 5518 5542 5567 5578 5584 5599 5606 5622 5636 5662 5679 5676 5672 5671 5666 5661 5656 5658 5663 5665 5658 5652 5650
5445 5424 5411 5426 5429 5413 5413 5416 5417 5378 5366 5356 5350 5345 5345 5344 5346 5353 5363 5377 5394 5412 5420 5434 5455 5475 5499 5524 5543 5557 5584 5588 5604 5615 5629 5633 5677 5674 5668 5667 5664 5661 5654 5653 5656 5655 5654 5642 5644
5437 5418 5408 5418 5424 5412 5415 5419 5401 5374 5361 5347 5345 5338 5336 5336 5338 5342 5347 5353 5366 5383 5410 5429 5437 5457 5473 5498 5517 5533 5560 5585 5600 5602 5614 5642 5661 5672 5669 5665 5663 5661 5653 5648 5647 5650 5646 5638 5643
5421 5404 5396 5401 5412 5408 5399 5404 5382 5368 5356 5352 5338 5331 5328 5325 5325 5331 5336 5337 5344 5359 5376 5398 5422 5439 5455 5473 5500 5528 5553 5576 5581 5598 5612 5621 5639 5658 5675 5667 5665 5659 5655 5651 5654 5654 5655 5647 5639
5385 5421 5412 5406 5383 5348 5374 5331 5363 5359 5353 5342 5330 5322 5317 5316 5316 5319 5323 5325 5329 5339 5353 5370 5393 5416 5437 5457 5481 5501 5531 5548 5568 5587 5600 5614 5637 5640 5646 5653 5652 5657 5651 5648 5647 5650 5651 5647 5643
5409 5407 5396 5381 5362 5333 5353 5310 5353 5336 5336 5326 5321 5317 5306 5306 5308 5309 5309 5312 5316 5323 5336 5352 5372 5396 5422 5441 5460 5483 5507 5525 5546 5575 5587 5609 5626 5630 5636 5632 5641 5650 5649 5647 5646 5640 5641 5643 5643
5404 5367 5350 5330 5322 5298 5333 5302 5354 5314 5314 5316 5315 5304 5298 5295 5297 5298 5299 5302 5302 5305 5318 5337 5356 5377 5402 5424 5439 5460 5482 5507 5536 5553 5577 5599 5614 5621 5628 5625 5629 5629 5639 5643 5641 5639 5638 5641 5640
5369 5333 5313 5314 5279 5330 5347 5300 5348 5311 5299 5301 5302 5298 5287 5279 5276 5283 5287 5289 5290 5291 5299 5317 5336 5359 5381 5404 5425 5446 5468 5491 5517 5535 5566 5587 5601 5614 5620 5622 5622 5624 5624 5626 5633 5630 5640 5636 5633
5331 5326 5304 5305 5280 5323 5339 5314 5338 5305 5303 5298 5297 5287 5282 5273 5265 5265 5273 5277 5280 5281 5284 5295 5315 5337 5359 5383 5409 5428 5450 5469 5497 5521 5547 5569 5590 5612 5615 5617 5618 5613 5617 5623 5620 5614 5622 5625 5621
5327 5317 5312 5279 5259 5276 5277 5301 5334 5307 5298 5292 5281 5279 5270 5264 5259 5257 5259 5266 5271 5272 5273 5279 5297 5318 5336 5357 5385 5410 5438 5461 5481 5505 5524 5555 5581 5600 5610 5612 5613 5614 5621 5621 5612 5619 5614 5616 5617
5343 5330 5295 5257 5261 5285 5271 5275 5342 5293 5301 5296 5277 5264 5257 5253 5252 5249 5251 5255 5262 5264 5264 5268 5280 5300 5320 5337 5362 5392 5416 5440 5467 5491 5521 5549 5568 5591 5604 5603 5604 5604 5610 5612 5615 5619 5616 5616 5619
5326 5303 5265 5262 5268 5255 5254 5311 5312 5318 5304 5290 5274 5260 5247 5241 5238 5238 5241 5245 5250 5254 5255 5259 5269 5283 5304 5326 5347 5375 5401 5430 5458 5482 5502 5530 5553 5580 5590 5597 5599 5596 5599 5603 5607 5614 5624 5617 5616
5305 5310 5296 5289 5257 5222 5239 5320 5306 5295 5289 5280 5266 5257 5244 5234 5229 5227 5232 5235 5237 5244 5248 5251 5259 5268 5286 5304 5329 5358 5383 5408 5442 5464 5482 5516 5539 5567 5580 5592 5592 5590 5596 5599 5601 5605 5611 5614 5615